Ballina Observation History
Time Wind Speed Temp Pressure Rel. Hum Rain
04/04:30am SW 10-16 kts 13.9°c 1025.8 hPa 57% 0.0mm
04/04:00am WSW 8-11 kts 13.7°c 1025.5 hPa 58% 0.0mm
04/03:30am SW 11-15 kts 14.3°c 1025.6 hPa 54% 0.0mm
04/03:00am SW 9-13 kts 14.3°c 1025.6 hPa 54% 0.0mm
04/02:30am SW 11-18 kts 13.9°c 1025.7 hPa 55% 0.0mm
04/02:00am SW 10-13 kts 14.0°c 1025.8 hPa 56% 0.0mm
04/01:30am WSW 8-13 kts 13.9°c 1025.9 hPa 62% 0.0mm
04/01:00am SW 9-13 kts 14.3°c 1025.7 hPa 62% 0.0mm
04/12:30am SW 9-12 kts 13.6°c 1025.6 hPa 70% 0.0mm
04/12:00am SW 7-9 kts 13.6°c 1025.7 hPa 68% 0.0mm
Time Wind Speed Temp Pressure Rel. Hum Rain
03/11:30pm SW 7-10 kts 13.6°c 1025.7 hPa 65% 0.0mm
03/11:00pm SW 10-13 kts 14.0°c 1025.7 hPa 64% 0.0mm
03/10:30pm WSW 9-12 kts 14.3°c 1025.7 hPa 64% 0.0mm
03/10:00pm WSW 8-10 kts 13.6°c 1025.5 hPa 69% 0.0mm
03/09:30pm WSW 7-9 kts 13.0°c 1025.4 hPa 72% 0.0mm
03/09:00pm WSW 9-12 kts 15.1°c 1025.1 hPa 62% 0.0mm
03/08:30pm S 15-22 kts 18.5°c 1024.8 hPa 49% 0.0mm
03/08:00pm S 12-17 kts 18.1°c 1024.5 hPa 52% 0.0mm
03/07:30pm S 11-19 kts 17.4°c 1024.3 hPa 53% 0.0mm
03/07:00pm S 10-14 kts 17.5°c 1023.9 hPa 59% 0.0mm
03/06:30pm S 11-18 kts 17.7°c 1023.4 hPa 61% 0.0mm
03/06:00pm S 11-17 kts 17.3°c 1022.7 hPa 63% 0.0mm
03/05:30pm S 10-15 kts 17.0°c 1022.2 hPa 63% 0.0mm
03/05:00pm S 12-16 kts 17.4°c 1021.8 hPa 57% 0.0mm
03/04:30pm S 10-16 kts 17.6°c 1021.5 hPa 57% 0.0mm
03/04:00pm S 10-13 kts 17.9°c 1021.3 hPa 51% 0.0mm
03/03:30pm S 11-16 kts 18.1°c 1021.0 hPa 47% 0.0mm
03/03:00pm S 12-17 kts 18.2°c 1020.7 hPa 45% 0.0mm
03/02:30pm S 10-15 kts 18.6°c 1020.4 hPa 46% 0.0mm
03/02:00pm S 7-11 kts 18.8°c 1020.0 hPa 43% 0.0mm
03/01:30pm SSW 7-10 kts 18.7°c 1019.9 hPa 40% 0.0mm
03/01:00pm SW 7-12 kts 18.6°c 1020.1 hPa 39% 0.0mm
03/12:30pm WSW 6-9 kts 18.4°c 1020.5 hPa 39% 0.0mm
03/12:00pm SW 7-10 kts 18.0°c 1020.9 hPa 41% 0.0mm
03/11:30am SW 7-11 kts 17.7°c 1021.1 hPa 37% 0.0mm
03/11:00am WSW 7-10 kts 17.6°c 1021.4 hPa 38% 0.0mm
03/10:30am WSW 7-10 kts 16.7°c 1021.7 hPa 40% 0.0mm
03/10:00am WSW 10-12 kts 16.1°c 1021.8 hPa 44% 0.0mm
03/09:30am W 9-12 kts 15.7°c 1021.8 hPa 49% 0.0mm
03/09:00am WSW 9-12 kts 14.8°c 1021.4 hPa 51% 0.0mm
03/08:30am WSW 6-9 kts 13.8°c 1021.2 hPa 57% 0.0mm
03/08:00am WSW 7-9 kts 12.8°c 1021.1 hPa 59% 0.0mm
03/07:30am W 6-9 kts 10.9°c 1020.7 hPa 64% 0.0mm
03/07:00am WNW 4-6 kts 8.0°c 1020.7 hPa 77% 0.0mm
03/06:30am W 5 kts 8.7°c 1020.2 hPa 68% 0.0mm
03/06:00am W 3-5 kts 8.7°c 1019.8 hPa 69% 0.0mm
03/05:30am WSW 7-8 kts 9.1°c 1019.5 hPa 68% 0.0mm
03/05:00am WSW 9-10 kts 8.4°c 1019.0 hPa 71% 0.0mm
03/04:30am W 5-7 kts 9.3°c 1019.0 hPa 65% 0.0mm
03/04:00am WNW 6-9 kts 10.0°c 1018.8 hPa 61% 0.0mm
03/03:30am WNW 9-13 kts 10.9°c 1018.6 hPa 58% 0.0mm
03/03:00am W 11-15 kts 11.1°c 1018.5 hPa 57% 0.0mm
03/02:30am WNW 10-15 kts 11.3°c 1018.6 hPa 56% 0.0mm
03/02:00am W 11-15 kts 11.3°c 1018.4 hPa 57% 0.0mm
03/01:30am W 11-15 kts 11.0°c 1018.3 hPa 58% 0.0mm
03/01:00am W 12-16 kts 11.5°c 1018.8 hPa 56% 0.0mm
03/12:30am WNW 11-16 kts 12.2°c 1018.9 hPa 53% 0.0mm
03/12:00am W 11-18 kts 12.4°c 1019.1 hPa 53% 0.0mm
Time Wind Speed Temp Pressure Rel. Hum Rain
02/11:30pm W 15-21 kts 12.5°c 1019.0 hPa 51% 0.0mm
02/11:00pm W 15-22 kts 12.6°c 1019.1 hPa 52% 0.0mm
02/10:30pm W 15-20 kts 12.9°c 1019.0 hPa 50% 0.0mm
02/10:00pm WNW 13-17 kts 12.9°c 1019.1 hPa 48% 0.0mm
02/09:30pm W 14-21 kts 12.9°c 1019.1 hPa 49% 0.0mm
02/09:00pm W 12-15 kts 12.7°c 1018.9 hPa 50% 0.0mm
02/08:30pm W 11-15 kts 12.1°c 1019.0 hPa 53% 0.0mm
02/08:00pm W 11-15 kts 12.3°c 1018.8 hPa 52% 0.0mm
02/07:30pm W 9-13 kts 12.4°c 1018.5 hPa 52% 0.0mm
02/07:00pm WNW 10-13 kts 13.4°c 1017.8 hPa 44% 0.0mm
02/06:30pm WNW 11-15 kts 14.1°c 1017.4 hPa 43% 0.0mm
02/06:00pm WNW 8-11 kts 13.9°c 1016.9 hPa 42% 0.0mm
02/05:30pm WNW 11-15 kts 15.2°c 1016.4 hPa 40% 0.0mm
02/05:00pm W 9-13 kts 14.9°c 1016.1 hPa 40% 0.0mm
02/04:30pm WNW 10-13 kts 16.5°c 1015.8 hPa 36% 0.0mm
02/04:00pm W 13-17 kts 17.2°c 1015.5 hPa 37% 0.0mm
02/03:30pm W 12-18 kts 18.0°c 1015.2 hPa 33% 0.0mm
02/03:00pm WNW 16-21 kts 18.3°c 1015.0 hPa 34% 0.0mm
02/02:30pm W 13-19 kts 18.5°c 1015.0 hPa 35% 0.0mm
02/02:00pm WNW 13-19 kts 18.3°c 1015.0 hPa 34% 0.0mm
02/01:30pm W 16-22 kts 18.0°c 1015.3 hPa 32% 0.0mm
02/01:00pm W 16-21 kts 18.0°c 1015.5 hPa 33% 0.0mm
02/12:30pm W 17-25 kts 17.7°c 1016.0 hPa 34% 0.0mm
02/12:00pm W 14-22 kts 17.3°c 1015.7 hPa 34% 0.0mm
02/11:30am W 17-24 kts 16.8°c 1016.6 hPa 36% 0.0mm
02/11:00am W 17-23 kts 16.2°c 1017.0 hPa 40% 0.0mm
02/10:30am WNW 14-22 kts 16.0°c 1017.5 hPa 42% 0.0mm
02/10:00am W 13-17 kts 15.6°c 1017.7 hPa 49% 0.0mm
02/09:30am W 14-19 kts 15.1°c 1017.6 hPa 51% 0.0mm
02/09:00am W 10-15 kts 14.8°c 1017.7 hPa 53% 3.6mm
02/08:30am W 13-19 kts 14.2°c 1017.3 hPa 59% 3.6mm
02/08:00am W 8-14 kts 14.0°c 1017.2 hPa 55% 3.6mm
02/07:30am W 9-12 kts 13.5°c 1017.3 hPa 60% 3.6mm
02/07:00am W 12-17 kts 12.9°c 1016.6 hPa 61% 3.6mm
02/06:30am WNW 7-12 kts 13.3°c 1015.6 hPa 64% 3.6mm
02/06:00am W 11-15 kts 13.0°c 1015.2 hPa 69% 3.6mm
02/05:30am NW 2-9 kts 10.9°c 1015.1 hPa 94% 3.6mm
02/05:00am NW 1-5 kts 11.9°c 1014.7 hPa 95% 3.6mm
02/04:30am CALM 0 kts 12.0°c 1014.6 hPa 92% 3.6mm
02/04:00am NW 4-5 kts 12.7°c 1014.2 hPa 89% 3.6mm
02/03:30am WNW 6-8 kts 13.1°c 1014.0 hPa 85% 3.6mm
02/03:00am NW 6-8 kts 14.7°c 1013.6 hPa 81% 3.6mm
02/02:30am WNW 8-9 kts 15.1°c 1013.6 hPa 81% 3.6mm
02/02:00am NW 7-9 kts 15.1°c 1013.7 hPa 85% 3.6mm
02/01:30am NW 7-9 kts 15.6°c 1013.5 hPa 88% 3.6mm
02/01:00am NNW 4-5 kts 15.3°c 1013.3 hPa 93% 3.6mm
02/12:30am NNW 5-6 kts 15.3°c 1013.2 hPa 94% 3.6mm
02/12:00am NW 5-6 kts 15.5°c 1013.4 hPa 93% 3.6mm